Temp
-9 -10 -10 -10 -10 -10 -10 -11 -11 -11 -11 -11 -11 -11 -11 -12 -11 -11 -11 -11 -10 -10 -11 -12 -13 -13 -13 -13 -14 -15 -15 -16 -16 -16 -16 -15 -15 -14 -14 -13 -13 -13 -13
-10 -10 -10 -10 -10 -11 -11 -11 -11 -11 -11 -11 -11 -11 -12 -12 -11 -11 -11 -11 -10 -11 -11 -12 -13 -13 -13 -13 -13 -14 -15 -15 -15 -15 -15 -15 -14 -14 -14 -13 -13 -13 -13
-10 -11 -11 -11 -11 -11 -11 -11 -11 -11 -11 -11 -11 -12 -12 -12 -12 -11 -11 -11 -11 -11 -12 -12 -13 -13 -13 -13 -13 -14 -15 -15 -15 -15 -15 -15 -15 -14 -14 -13 -13 -13 -13
-11 -11 -11 -11 -12 -12 -12 -12 -12 -12 -12 -12 -12 -12 -12 -12 -12 -11 -11 -11 -11 -11 -12 -12 -13 -13 -13 -13 -13 -13 -14 -15 -15 -15 -14 -14 -14 -14 -14 -13 -13 -13 -13
-11 -12 -12 -13 -13 -12 -12 -12 -12 -12 -12 -12 -12 -12 -12 -12 -12 -12 -11 -11 -11 -12 -12 -12 -13 -13 -13 -13 -13 -13 -13 -14 -14 -14 -14 -14 -14 -14 -14 -14 -13 -13 -13
-12 -13 -14 -14 -14 -14 -14 -13 -13 -12 -12 -13 -12 -12 -12 -12 -12 -11 -11 -11 -12 -12 -11 -12 -12 -13 -13 -12 -13 -13 -13 -13 -13 -14 -14 -14 -14 -14 -14 -14 -14 -14 -13
-12 -13 -14 -14 -14 -14 -14 -14 -13 -13 -13 -13 -13 -12 -12 -12 -12 -11 -12 -12 -12 -12 -12 -12 -12 -12 -12 -12 -13 -13 -13 -13 -13 -13 -13 -13 -14 -13 -13 -13 -13 -13 -13
-12 -13 -14 -14 -14 -14 -14 -14 -13 -13 -13 -13 -13 -12 -12 -12 -12 -12 -12 -12 -12 -12 -12 -12 -12 -12 -12 -12 -13 -13 -13 -13 -13 -13 -13 -13 -13 -13 -13 -13 -13 -13 -13
-12 -13 -13 -14 -14 -14 -14 -14 -13 -13 -13 -13 -13 -12 -12 -12 -12 -12 -12 -12 -12 -12 -12 -12 -12 -12 -12 -12 -13 -13 -13 -13 -13 -13 -13 -13 -13 -13 -13 -13 -13 -13 -13
-13 -13 -14 -14 -14 -14 -14 -14 -13 -13 -13 -13 -13 -13 -13 -12 -12 -12 -13 -13 -12 -12 -12 -12 -12 -12 -12 -13 -13 -13 -12 -12 -13 -13 -13 -13 -13 -13 -13 -13 -13 -13 -13
-14 -14 -14 -14 -14 -14 -14 -14 -13 -13 -13 -13 -13 -13 -13 -13 -13 -13 -13 -13 -13 -13 -13 -13 -13 -13 -13 -13 -13 -13 -13 -13 -13 -13 -13 -13 -13 -13 -13 -13 -13 -13 -13
-14 -14 -14 -14 -14 -14 -14 -14 -14 -14 -14 -14 -13 -13 -13 -13 -13 -13 -13 -13 -13 -13 -13 -13 -13 -13 -13 -13 -13 -13 -13 -13 -13 -13 -13 -13 -13 -13 -13 -13 -13 -13 -13
-14 -14 -14 -14 -14 -14 -14 -14 -14 -14 -14 -14 -14 -14 -14 -14 -13 -13 -13 -13 -13 -13 -13 -13 -14 -14 -14 -14 -14 -14 -14 -14 -14 -14 -14 -13 -13 -13 -13 -13 -13 -13 -13
-14 -14 -14 -14 -14 -14 -14 -14 -14 -14 -14 -14 -14 -14 -14 -14 -14 -14 -14 -14 -14 -14 -14 -14 -14 -14 -14 -14 -14 -14 -14 -14 -14 -14 -14 -14 -14 -14 -14 -14 -14 -14 -14
-15 -14 -15 -14 -14 -14 -14 -14 -14 -14 -14 -14 -14 -14 -14 -14 -14 -14 -14 -14 -14 -14 -15 -15 -15 -15 -15 -15 -15 -15 -15 -15 -15 -15 -15 -15 -15 -15 -15 -15 -15 -15 -15
-14 -15 -15 -15 -15 -15 -15 -15 -15 -15 -15 -14 -15 -15 -15 -15 -15 -15 -15 -15 -15 -15 -15 -15 -16 -16 -16 -16 -16 -16 -16 -16 -16 -16 -16 -16 -16 -16 -16 -16 -16 -16 -16
-15 -15 -15 -15 -15 -15 -15 -15 -15 -15 -15 -15 -15 -15 -15 -16 -16 -16 -16 -16 -16 -16 -16 -16 -16 -16 -16 -17 -17 -17 -17 -17 -17 -17 -17 -17 -17 -17 -17 -17 -17 -17 -17
-15 -15 -15 -15 -16 -16 -16 -16 -16 -16 -16 -16 -16 -16 -16 -16 -16 -17 -17 -17 -17 -17 -17 -17 -17 -17 -17 -17 -18 -18 -18 -18 -18 -18 -18 -18 -18 -18 -19 -18 -18 -18 -18
-16 -16 -16 -16 -16 -17 -17 -17 -17 -17 -17 -17 -17 -17 -17 -17 -17 -17 -17 -17 -18 -18 -18 -18 -18 -18 -18 -19 -19 -19 -19 -19 -19 -19 -19 -19 -19 -20 -20 -20 -20 -20 -20
-16 -17 -17 -17 -17 -17 -17 -17 -18 -18 -18 -18 -18 -18 -18 -18 -18 -18 -18 -18 -18 -18 -19 -19 -19 -19 -19 -20 -20 -20 -20 -20 -20 -20 -20 -20 -20 -21 -21 -21 -21 -21 -22
-18 -17 -17 -17 -18 -18 -18 -18 -18 -18 -18 -18 -18 -19 -19 -19 -19 -19 -19 -19 -20 -20 -20 -20 -20 -20 -20 -21 -21 -21 -21 -21 -21 -21 -21 -22 -22 -22 -22 -23 -23 -23 -23
-19 -19 -19 -19 -19 -19 -19 -19 -19 -19 -20 -20 -20 -20 -20 -20 -20 -20 -20 -21 -21 -21 -21 -21 -21 -21 -22 -22 -22 -23 -23 -23 -22 -22 -23 -23 -23 -23 -23 -24 -24 -24 -24
-20 -20 -20 -20 -20 -20 -21 -21 -21 -21 -21 -21 -21 -21 -21 -22 -22 -22 -23 -23 -23 -23 -23 -23 -23 -23 -23 -23 -24 -24 -24 -24 -24 -24 -24 -24 -24 -25 -24 -24 -25 -25 -26
-21 -21 -21 -22 -22 -22 -22 -22 -22 -22 -22 -22 -23 -23 -24 -24 -24 -24 -25 -25 -25 -25 -25 -25 -25 -25 -24 -25 -25 -25 -25 -25 -25 -26 -25 -25 -25 -25 -26 -26 -27 -26 -26
-22 -22 -23 -23 -24 -24 -24 -24 -24 -24 -24 -24 -24 -25 -25 -25 -25 -26 -26 -26 -26 -26 -26 -26 -26 -26 -26 -26 -26 -27 -26 -26 -26 -26 -26 -26 -27 -27 -27 -27 -27 -28 -28
-24 -24 -24 -25 -25 -25 -25 -25 -25 -25 -25 -25 -25 -25 -25 -26 -27 -27 -28 -28 -28 -27 -27 -27 -27 -27 -27 -27 -27 -27 -27 -27 -27 -27 -28 -28 -28 -28 -28 -28 -29 -29 -29
Height
5808 5806 5803 5801 5798 5795 5792 5791 5788 5786 5784 5782 5779 5776 5774 5772 5769 5766 5763 5758 5753 5745 5739 5733 5728 5724 5719 5714 5707 5701 5696 5695 5693 5692 5694 5697 5700 5705 5708 5712 5717 5722 5726
5800 5797 5794 5792 5789 5786 5784 5782 5780 5778 5775 5773 5770 5768 5766 5764 5762 5759 5756 5752 5746 5739 5732 5727 5723 5720 5716 5712 5707 5703 5699 5696 5695 5695 5695 5696 5700 5703 5706 5710 5715 5718 5722
5791 5788 5784 5781 5779 5777 5775 5773 5771 5769 5767 5765 5763 5760 5758 5756 5754 5751 5749 5745 5737 5732 5727 5721 5718 5715 5713 5709 5706 5703 5699 5697 5696 5696 5697 5697 5698 5701 5703 5707 5711 5714 5717
5780 5777 5772 5769 5767 5766 5765 5763 5762 5760 5758 5757 5754 5752 5750 5748 5746 5744 5741 5737 5731 5726 5721 5716 5712 5710 5708 5706 5704 5702 5699 5696 5695 5695 5696 5696 5698 5699 5701 5704 5707 5710 5712
5769 5763 5758 5756 5756 5755 5754 5753 5752 5751 5750 5748 5746 5744 5742 5740 5738 5737 5733 5729 5724 5720 5716 5711 5708 5706 5704 5702 5700 5699 5697 5695 5694 5693 5693 5695 5696 5697 5698 5700 5702 5704 5705
5761 5755 5751 5748 5747 5746 5746 5745 5743 5742 5741 5739 5737 5736 5734 5733 5732 5729 5725 5721 5718 5715 5711 5706 5703 5700 5699 5697 5696 5695 5694 5693 5692 5691 5690 5690 5691 5694 5695 5696 5697 5698 5699
5755 5750 5745 5743 5743 5741 5739 5737 5736 5734 5732 5731 5729 5727 5726 5725 5723 5720 5716 5714 5712 5709 5706 5702 5698 5696 5694 5692 5690 5690 5689 5689 5689 5688 5688 5687 5687 5687 5689 5690 5691 5692 5692
5749 5744 5741 5738 5736 5735 5733 5730 5728 5726 5724 5723 5722 5720 5718 5716 5714 5711 5709 5707 5705 5703 5701 5698 5695 5693 5690 5688 5686 5685 5684 5683 5682 5682 5682 5682 5682 5682 5682 5682 5683 5683 5682
5742 5738 5735 5732 5730 5728 5726 5723 5721 5719 5717 5715 5713 5712 5710 5708 5705 5703 5702 5701 5699 5696 5694 5692 5690 5688 5686 5684 5683 5681 5679 5677 5676 5675 5674 5674 5674 5674 5674 5675 5675 5675 5674
5736 5732 5729 5726 5724 5722 5720 5717 5715 5712 5710 5708 5706 5704 5702 5699 5698 5697 5695 5694 5692 5690 5689 5687 5685 5684 5682 5680 5679 5677 5675 5673 5671 5669 5667 5666 5665 5664 5663 5663 5662 5662 5662
5729 5726 5723 5720 5718 5715 5713 5710 5708 5705 5703 5701 5698 5696 5694 5692 5691 5689 5688 5686 5685 5683 5682 5681 5679 5677 5676 5674 5672 5670 5668 5667 5665 5663 5661 5659 5657 5655 5654 5652 5651 5651 5650
5722 5719 5716 5713 5711 5709 5706 5703 5700 5697 5695 5693 5691 5689 5687 5685 5683 5682 5680 5679 5677 5676 5674 5672 5670 5668 5667 5665 5663 5661 5659 5657 5655 5653 5651 5650 5648 5646 5644 5642 5640 5638 5636
5712 5710 5708 5705 5702 5699 5696 5693 5691 5688 5685 5683 5681 5679 5677 5676 5674 5672 5670 5669 5667 5665 5663 5661 5659 5657 5655 5653 5651 5649 5647 5645 5643 5641 5639 5637 5636 5634 5632 5630 5627 5625 5623
5704 5700 5698 5695 5692 5689 5685 5683 5681 5678 5676 5673 5671 5670 5667 5665 5663 5661 5660 5658 5655 5653 5651 5648 5645 5643 5640 5638 5636 5634 5632 5630 5628 5626 5624 5622 5621 5619 5617 5616 5613 5611 5608
5694 5690 5688 5685 5682 5678 5675 5672 5670 5667 5665 5662 5660 5658 5656 5654 5652 5649 5647 5644 5641 5639 5636 5634 5631 5629 5626 5624 5622 5619 5617 5615 5613 5611 5609 5607 5604 5602 5600 5599 5596 5594 5591
5681 5678 5676 5673 5669 5665 5662 5659 5657 5655 5653 5650 5647 5645 5642 5639 5637 5634 5632 5630 5627 5625 5622 5619 5616 5613 5610 5608 5606 5604 5601 5598 5595 5593 5591 5588 5585 5583 5580 5578 5576 5574 5571
5668 5666 5663 5660 5656 5652 5649 5646 5642 5639 5637 5634 5632 5630 5627 5624 5621 5618 5615 5613 5610 5607 5604 5601 5598 5594 5591 5588 5586 5584 5581 5580 5577 5574 5571 5568 5564 5561 5559 5557 5554 5550 5547
5654 5651 5647 5643 5639 5635 5632 5630 5627 5623 5620 5617 5614 5611 5609 5605 5603 5600 5598 5595 5593 5589 5585 5582 5578 5575 5571 5568 5565 5564 5561 5559 5555 5553 5550 5547 5542 5539 5537 5535 5531 5528 5523
5637 5633 5629 5626 5622 5618 5614 5611 5606 5601 5600 5599 5595 5591 5588 5584 5582 5579 5576 5574 5571 5567 5564 5561 5558 5555 5551 5547 5544 5542 5539 5537 5533 5530 5527 5524 5520 5515 5512 5511 5508 5506 5500
5619 5615 5611 5608 5604 5600 5595 5591 5587 5583 5580 5577 5574 5570 5568 5564 5561 5557 5554 5551 5548 5545 5541 5538 5535 5533 5530 5524 5521 5517 5516 5514 5511 5507 5503 5498 5495 5491 5488 5485 5484 5483 5477
5600 5597 5593 5590 5586 5582 5575 5570 5566 5563 5561 5557 5553 5549 5545 5542 5538 5535 5532 5529 5526 5523 5520 5518 5513 5510 5505 5501 5495 5490 5489 5487 5487 5484 5480 5474 5470 5467 5464 5459 5457 5453 5451
5580 5577 5572 5567 5562 5559 5554 5551 5547 5543 5539 5535 5531 5527 5524 5520 5517 5514 5510 5506 5503 5501 5498 5494 5492 5487 5482 5478 5473 5466 5462 5459 5458 5457 5454 5451 5447 5443 5439 5435 5430 5425 5419
5560 5556 5553 5547 5542 5539 5533 5529 5525 5522 5518 5514 5509 5505 5501 5497 5493 5491 5488 5485 5480 5477 5475 5472 5469 5466 5460 5456 5449 5443 5438 5434 5431 5429 5426 5425 5422 5416 5412 5408 5402 5395 5390
5537 5534 5529 5525 5520 5515 5512 5506 5502 5499 5496 5492 5488 5483 5480 5475 5471 5468 5464 5462 5458 5453 5450 5447 5442 5439 5437 5433 5425 5420 5416 5412 5406 5401 5402 5399 5393 5388 5382 5376 5372 5367 5362
5515 5512 5508 5503 5499 5494 5489 5485 5481 5477 5474 5471 5467 5464 5459 5454 5451 5447 5443 5438 5436 5430 5426 5424 5418 5413 5413 5410 5401 5395 5392 5389 5382 5373 5373 5369 5363 5359 5354 5348 5345 5342 5338
5491 5488 5485 5482 5478 5474 5469 5464 5461 5457 5453 5452 5448 5444 5439 5435 5430 5426 5423 5420 5414 5410 5405 5401 5395 5390 5384 5381 5373 5367 5363 5362 5352 5346 5343 5342 5338 5333 5329 5324 5321 5317 5314
Wind_Speed
39 39 40 42 43 43 43 42 40 39 39 39 37 36 36 37 36 38 41 45 48 52 50 43 36 34 33 32 30 22 18 13 5 4 6 9 12 16 17 18 21 23 24
43 44 46 47 48 47 45 43 40 40 39 38 37 36 36 36 37 38 42 45 48 51 45 39 32 30 29 27 27 22 15 12 10 6 8 11 12 15 14 16 20 22 23
47 49 51 52 51 49 44 40 39 39 39 38 37 36 37 37 38 39 42 46 48 46 40 34 28 27 26 24 24 21 16 11 8 7 7 10 12 13 13 16 19 21 23
49 50 51 50 48 45 42 40 39 38 38 38 37 36 37 36 38 40 43 45 45 39 35 32 27 24 24 22 21 20 16 12 9 7 7 8 11 13 14 17 19 21 23
46 48 43 40 41 40 40 38 37 38 38 37 36 36 35 36 38 41 44 44 38 32 30 28 25 23 23 23 22 20 19 15 11 11 10 11 12 13 16 19 21 24 26
39 38 32 33 33 32 33 34 35 36 36 36 35 34 33 36 40 42 43 37 31 28 26 24 22 20 21 22 23 23 20 19 16 14 13 15 17 18 20 21 23 26 29
34 32 29 29 30 31 31 32 33 35 35 35 35 33 34 37 41 41 34 32 28 25 24 22 20 20 20 20 20 21 22 20 19 19 18 17 19 20 24 27 30 32 35
33 30 28 27 28 31 32 33 34 34 34 34 34 34 35 39 38 33 32 28 24 23 22 21 20 20 19 19 19 19 21 22 22 21 21 21 23 23 23 25 27 30 33
32 31 29 29 30 31 32 33 33 33 34 36 36 35 36 34 32 31 29 27 25 21 18 16 16 18 18 19 21 21 20 20 21 22 24 24 24 27 28 30 32 33 34
28 29 29 30 31 32 34 35 35 35 36 35 35 35 34 33 31 30 30 27 23 21 20 21 21 22 21 21 22 24 23 23 24 24 25 26 28 30 32 33 34 36 37
30 30 32 33 32 32 33 34 34 35 35 35 35 34 33 31 32 31 29 27 24 24 24 26 26 26 25 27 29 30 30 31 31 31 30 31 31 32 33 35 37 39 41
36 37 37 36 35 36 37 38 38 38 37 37 36 34 33 33 32 30 28 26 26 27 29 31 32 32 33 35 36 37 37 36 36 36 36 37 38 39 39 39 41 42 43
39 40 39 39 39 39 39 39 38 38 39 38 37 36 36 35 32 32 31 32 33 34 36 37 38 38 39 40 40 40 40 40 38 38 40 41 41 44 45 48 49 49 50
41 42 41 41 41 42 42 42 41 40 40 39 38 37 37 37 38 39 40 40 41 42 44 44 43 44 45 45 45 45 44 42 43 43 43 44 46 47 48 51 53 55 58
42 44 43 43 43 45 46 47 46 44 43 44 43 43 44 45 46 46 46 47 48 49 49 49 50 50 50 49 49 48 48 49 49 49 49 50 52 54 54 57 60 62 65
48 47 46 47 48 49 50 50 51 51 50 51 52 52 53 53 53 53 53 54 55 56 55 55 56 56 55 54 54 53 54 54 55 55 56 57 58 59 62 64 66 68 70
51 51 52 52 53 54 55 56 58 58 58 58 57 57 58 58 58 59 59 60 61 61 61 62 61 60 60 59 59 59 59 61 62 62 63 64 65 66 66 67 70 72 73
55 55 56 58 59 60 61 62 62 63 63 64 65 66 66 66 66 65 65 66 66 67 67 67 66 65 65 66 66 66 66 65 67 68 69 70 71 72 70 70 72 74 75
61 64 65 65 64 64 65 66 67 67 67 66 66 68 69 70 70 71 71 71 71 70 70 70 70 70 70 71 72 72 71 70 70 72 73 74 75 75 74 73 73 75 75
67 68 68 69 70 70 71 72 71 71 72 71 70 70 71 71 72 72 73 73 73 72 71 73 74 74 74 76 77 77 76 75 74 73 74 76 76 75 73 74 74 73 75
68 70 71 72 71 70 72 74 75 75 74 75 75 74 73 74 73 73 73 73 73 74 74 75 75 76 77 76 77 78 77 76 76 75 74 74 75 75 74 74 74 76 78
71 69 69 70 72 73 74 75 76 77 77 77 77 77 77 78 78 77 76 76 76 77 76 75 75 77 77 77 76 76 76 76 76 74 74 74 74 75 75 75 78 82 84
72 73 74 75 76 77 78 78 79 78 79 79 79 79 78 76 73 71 69 69 70 71 72 73 74 75 74 74 74 75 75 75 75 74 74 75 76 79 80 81 83 83 81
77 76 77 77 77 78 78 77 77 77 76 75 72 69 67 67 67 66 67 68 70 71 71 72 73 73 72 72 73 72 72 73 74 76 78 80 82 84 85 81 76 74 74
80 79 77 74 72 72 73 73 72 68 67 66 67 67 68 68 65 64 65 67 68 70 72 72 73 74 73 71 73 74 76 78 82 84 83 84 83 78 73 71 70 68 67
74 71 68 64 65 66 69 64 67 70 70 68 70 72 70 65 62 63 65 68 71 74 75 77 79 80 81 82 84 84 84 83 83 83 79 74 70 67 67 66 63 61 61
Wind_Direction
287 285 286 286 287 287 288 290 291 288 288 292 295 296 295 292 295 301 307 312 316 321 321 321 316 320 330 340 345 348 358 345 324 178 185 200 208 214 211 218 226 230 232
288 289 289 287 287 287 288 289 287 286 288 291 294 294 292 290 296 303 305 311 316 319 320 319 317 318 324 337 344 345 344 350 339 287 209 203 205 217 217 227 233 234 238
292 292 290 289 287 286 285 283 284 285 288 292 295 293 290 288 295 303 307 312 317 318 317 319 316 317 319 331 338 341 340 333 336 322 280 238 219 216 222 234 243 247 248
297 292 288 284 283 282 281 282 284 286 289 291 292 290 287 288 293 301 306 312 315 313 315 320 318 316 316 320 330 334 333 325 309 296 286 275 254 240 236 239 246 252 254
303 302 295 285 278 276 276 280 283 285 287 289 290 289 287 288 294 301 307 312 310 310 317 321 319 317 318 318 319 325 326 326 308 289 276 271 266 259 248 248 247 250 254
311 311 308 292 282 281 280 280 281 285 288 289 289 288 288 292 296 301 308 307 307 309 314 322 322 315 312 317 316 317 319 318 315 301 280 266 260 259 261 259 258 260 263
309 312 310 298 292 287 283 283 286 287 289 290 291 289 291 294 297 304 304 305 304 306 310 317 325 323 316 311 309 309 310 311 309 306 300 286 273 266 261 262 264 265 267
307 307 303 297 291 290 291 291 289 291 293 293 291 291 294 296 300 300 301 300 302 303 306 311 314 315 321 326 324 314 305 303 303 301 294 293 290 282 274 269 267 268 270
302 306 306 302 298 297 297 297 296 295 293 292 294 296 296 296 297 296 296 296 296 296 301 308 315 318 319 323 321 317 315 312 304 298 294 291 288 284 282 282 278 274 272
299 300 301 302 301 299 298 298 297 296 295 295 296 295 293 295 294 293 293 294 293 292 297 302 309 306 307 312 316 314 313 313 312 307 299 294 290 286 283 280 278 276 274
303 300 299 298 297 297 297 298 298 297 297 295 293 293 292 291 291 290 288 286 290 291 293 300 303 302 297 299 301 303 302 300 299 297 294 293 293 291 289 286 284 282 281
301 301 300 299 297 296 297 296 294 292 293 295 294 292 289 289 289 286 284 282 286 288 291 293 294 293 293 295 297 297 297 295 294 292 291 290 288 286 285 282 281 282 282
299 299 299 298 297 296 294 292 292 291 290 288 287 285 283 283 282 280 278 279 280 282 284 287 290 289 290 292 293 292 292 289 288 289 288 286 285 286 286 286 284 282 279
294 295 295 294 293 292 291 292 292 289 288 288 286 283 281 279 280 279 277 277 278 280 282 283 283 285 286 286 286 285 283 281 282 284 285 282 280 281 281 283 281 279 278
290 291 292 291 291 291 291 292 291 288 286 283 281 280 281 280 280 278 277 276 277 279 280 281 283 284 284 283 283 283 282 282 283 283 284 286 285 284 281 282 282 281 280
291 291 292 292 290 287 285 286 286 284 283 282 281 279 280 280 279 278 278 279 280 281 281 282 282 282 282 281 281 282 283 283 282 282 283 283 284 283 282 280 280 279 278
288 290 291 290 290 290 289 289 289 288 286 284 282 280 279 279 278 278 278 278 279 280 280 281 281 281 279 278 279 280 282 282 282 281 280 280 281 282 281 281 280 279 278
286 286 285 285 285 285 286 287 287 285 285 285 284 284 284 283 282 281 280 280 281 280 279 280 280 280 279 278 279 280 282 282 281 281 281 280 280 281 282 281 282 281 281
285 285 285 285 285 286 286 286 286 285 285 284 283 282 282 282 282 281 281 281 281 281 280 280 279 278 279 280 281 281 281 282 281 281 282 282 281 281 282 282 282 282 282
285 285 286 287 288 288 287 285 284 284 284 285 284 283 282 282 282 281 281 281 281 281 279 280 280 280 281 283 283 282 282 283 283 284 283 281 281 281 282 284 283 283 281
285 285 285 285 285 285 284 284 285 285 286 285 284 283 283 283 283 283 282 282 282 281 281 281 281 281 282 283 284 284 284 283 283 283 281 281 280 281 283 283 284 285 282
287 288 287 286 285 283 283 284 285 286 286 287 287 287 287 286 285 284 284 283 283 282 282 281 281 282 283 284 284 284 284 284 284 282 280 280 280 281 282 284 285 283 281
284 284 284 284 284 285 285 286 287 287 287 288 288 289 290 289 289 288 288 288 288 287 286 285 285 284 284 284 283 282 280 279 279 279 280 280 283 284 285 283 282 283 281
286 286 286 286 286 287 287 288 288 288 289 289 289 288 288 289 290 291 291 291 290 289 286 285 285 284 283 281 280 279 279 280 282 283 284 285 286 284 283 286 285 283 281
286 286 287 287 287 286 286 287 289 288 287 286 286 287 288 289 290 292 293 291 291 288 287 286 285 283 282 282 282 283 284 285 286 285 286 285 285 287 287 285 284 282 279
291 289 288 289 286 284 286 288 289 286 285 286 286 286 286 288 292 294 293 291 292 289 287 286 286 286 289 287 287 287 288 288 284 284 286 287 287 287 286 285 284 282 280